Year,Month,Day,Hour,Minute,Value (Times are PST for barometer in hPa)
2022,01,07,00,00,989.71
2022,01,07,00,01,989.71
2022,01,07,00,02,989.71
2022,01,07,00,03,989.67
2022,01,07,00,04,989.67
2022,01,07,00,05,989.67
2022,01,07,00,06,989.60
2022,01,07,00,07,989.54
2022,01,07,00,08,989.57
2022,01,07,00,09,989.57
2022,01,07,00,10,989.47
2022,01,07,00,11,989.47
2022,01,07,00,12,989.44
2022,01,07,00,13,989.44
2022,01,07,00,14,989.40
2022,01,07,00,15,989.40
2022,01,07,00,16,989.40
2022,01,07,00,17,989.30
2022,01,07,00,18,989.40
2022,01,07,00,19,989.27
2022,01,07,00,20,989.20
2022,01,07,00,21,989.10
2022,01,07,00,22,989.13
2022,01,07,00,23,989.10
2022,01,07,00,24,989.06
2022,01,07,00,25,989.10
2022,01,07,00,26,989.00
2022,01,07,00,27,988.93
2022,01,07,00,28,988.96
2022,01,07,00,29,988.93
2022,01,07,00,30,988.93
2022,01,07,00,31,988.93
2022,01,07,00,32,988.93
2022,01,07,00,33,988.96
2022,01,07,00,34,989.00
2022,01,07,00,35,989.03
2022,01,07,00,36,988.89
2022,01,07,00,37,988.86
2022,01,07,00,38,988.79
2022,01,07,00,39,988.86
2022,01,07,00,40,988.86
2022,01,07,00,41,988.79
2022,01,07,00,42,988.76
2022,01,07,00,43,988.76
2022,01,07,00,44,988.76
2022,01,07,00,45,988.62
2022,01,07,00,46,988.66
2022,01,07,00,47,988.55
2022,01,07,00,48,988.66
2022,01,07,00,49,988.66
2022,01,07,00,50,988.66
2022,01,07,00,51,988.66
2022,01,07,00,52,988.66
2022,01,07,00,53,988.66
2022,01,07,00,54,988.62
2022,01,07,00,55,988.66
2022,01,07,00,56,988.52
2022,01,07,00,57,988.59
2022,01,07,00,58,988.62
2022,01,07,00,59,988.55
2022,01,07,01,00,988.69
2022,01,07,01,01,988.69
2022,01,07,01,02,988.72
2022,01,07,01,03,988.76
2022,01,07,01,04,988.83
2022,01,07,01,05,988.79
2022,01,07,01,06,988.83
2022,01,07,01,07,988.83
2022,01,07,01,08,988.86
2022,01,07,01,09,988.83
2022,01,07,01,10,988.89
2022,01,07,01,11,988.79
2022,01,07,01,12,988.83
2022,01,07,01,13,988.79
2022,01,07,01,14,988.86
2022,01,07,01,15,988.83
2022,01,07,01,16,988.93
2022,01,07,01,17,988.89
2022,01,07,01,18,988.89
2022,01,07,01,19,988.93
2022,01,07,01,20,988.93
2022,01,07,01,21,988.89
2022,01,07,01,22,988.96
2022,01,07,01,23,988.96
2022,01,07,01,24,988.96
2022,01,07,01,25,988.96
2022,01,07,01,26,988.93
2022,01,07,01,27,988.93
2022,01,07,01,28,988.93
2022,01,07,01,29,988.96
2022,01,07,01,30,988.93
2022,01,07,01,31,988.93
2022,01,07,01,32,988.86
2022,01,07,01,33,988.93
2022,01,07,01,34,989.03
2022,01,07,01,35,988.93
2022,01,07,01,36,988.93
2022,01,07,01,37,988.96
2022,01,07,01,38,989.03
2022,01,07,01,39,989.16
2022,01,07,01,40,989.13
2022,01,07,01,41,989.20
2022,01,07,01,42,989.20
2022,01,07,01,43,989.16
2022,01,07,01,44,989.20
2022,01,07,01,45,989.20
2022,01,07,01,46,989.23
2022,01,07,01,47,989.23
2022,01,07,01,48,989.23
2022,01,07,01,49,989.27
2022,01,07,01,50,989.23
2022,01,07,01,51,989.20
2022,01,07,01,52,989.13
2022,01,07,01,53,989.13
2022,01,07,01,54,989.10
2022,01,07,01,55,989.06
2022,01,07,01,56,989.13
2022,01,07,01,57,989.16
2022,01,07,01,58,989.10
2022,01,07,01,59,989.13
2022,01,07,02,00,989.20
2022,01,07,02,01,989.16
2022,01,07,02,02,989.20
2022,01,07,02,03,989.13
2022,01,07,02,04,989.13
2022,01,07,02,05,989.20
2022,01,07,02,06,989.20
2022,01,07,02,07,989.20
2022,01,07,02,08,989.16
2022,01,07,02,09,989.13
2022,01,07,02,10,989.13
2022,01,07,02,11,989.16
2022,01,07,02,12,989.10
2022,01,07,02,13,989.10
2022,01,07,02,14,989.03
2022,01,07,02,15,989.10
2022,01,07,02,16,989.10
2022,01,07,02,17,989.03
2022,01,07,02,18,988.96
2022,01,07,02,19,988.96
2022,01,07,02,20,989.06
2022,01,07,02,21,989.03
2022,01,07,02,22,988.96
2022,01,07,02,23,989.03
2022,01,07,02,24,988.93
2022,01,07,02,25,989.00
2022,01,07,02,26,989.00
2022,01,07,02,27,989.00
2022,01,07,02,28,988.96
2022,01,07,02,29,989.00
2022,01,07,02,30,988.96
2022,01,07,02,31,989.03
2022,01,07,02,32,989.03
2022,01,07,02,33,989.00
2022,01,07,02,34,989.06
2022,01,07,02,35,989.10
2022,01,07,02,36,989.03
2022,01,07,02,37,989.13
2022,01,07,02,38,989.06
2022,01,07,02,39,989.13
2022,01,07,02,40,989.10
2022,01,07,02,41,989.10
2022,01,07,02,42,989.06
2022,01,07,02,43,989.16
2022,01,07,02,44,989.06
2022,01,07,02,45,989.13
2022,01,07,02,46,989.10
2022,01,07,02,47,989.10
2022,01,07,02,48,989.03
2022,01,07,02,49,989.03
2022,01,07,02,50,989.10
2022,01,07,02,51,989.10
2022,01,07,02,52,989.13
2022,01,07,02,53,989.13
2022,01,07,02,54,989.16
2022,01,07,02,55,989.16
2022,01,07,02,56,989.20
2022,01,07,02,57,989.20
2022,01,07,02,58,989.13
2022,01,07,02,59,989.10
2022,01,07,03,00,989.10
2022,01,07,03,01,989.10
2022,01,07,03,02,989.10
2022,01,07,03,03,989.10
2022,01,07,03,04,989.06
2022,01,07,03,05,989.10
2022,01,07,03,06,989.10
2022,01,07,03,07,989.10
2022,01,07,03,08,989.06
2022,01,07,03,09,989.06
2022,01,07,03,10,989.13
2022,01,07,03,11,989.10
2022,01,07,03,12,989.03
2022,01,07,03,13,989.13
2022,01,07,03,14,989.20
2022,01,07,03,15,989.20
2022,01,07,03,16,989.23
2022,01,07,03,17,989.23
2022,01,07,03,18,989.20
2022,01,07,03,19,989.23
2022,01,07,03,20,989.20
2022,01,07,03,21,989.20
2022,01,07,03,22,989.13
2022,01,07,03,23,989.20
2022,01,07,03,24,989.23
2022,01,07,03,25,989.23
2022,01,07,03,26,989.23
2022,01,07,03,27,989.27
2022,01,07,03,28,989.27
2022,01,07,03,29,989.30
2022,01,07,03,30,989.23
2022,01,07,03,31,989.27
2022,01,07,03,32,989.33
2022,01,07,03,33,989.23
2022,01,07,03,34,989.28
2022,01,07,03,35,989.44
2022,01,07,03,36,989.37
2022,01,07,03,37,989.33
2022,01,07,03,38,989.27
2022,01,07,03,39,989.30
2022,01,07,03,40,989.30
2022,01,07,03,41,989.27
2022,01,07,03,42,989.30
2022,01,07,03,43,989.30
2022,01,07,03,44,989.37
2022,01,07,03,45,989.30
2022,01,07,03,46,989.27
2022,01,07,03,47,989.23
2022,01,07,03,48,989.27
2022,01,07,03,49,989.33
2022,01,07,03,50,989.33
2022,01,07,03,51,989.30
2022,01,07,03,52,989.23
2022,01,07,03,53,989.27
2022,01,07,03,54,989.30
2022,01,07,03,55,989.30
2022,01,07,03,56,989.33
2022,01,07,03,57,989.27
2022,01,07,03,58,989.30
2022,01,07,03,59,989.33
2022,01,07,04,00,989.33
2022,01,07,04,01,989.30
2022,01,07,04,02,989.37
2022,01,07,04,03,989.30
2022,01,07,04,04,989.30
2022,01,07,04,05,989.33
2022,01,07,04,06,989.37
2022,01,07,04,07,989.30
2022,01,07,04,08,989.30
2022,01,07,04,09,989.30
2022,01,07,04,10,989.33
2022,01,07,04,11,989.43
2022,01,07,04,12,989.30
2022,01,07,04,13,989.37
2022,01,07,04,14,989.30
2022,01,07,04,15,989.30
2022,01,07,04,16,989.27
2022,01,07,04,17,989.30
2022,01,07,04,18,989.27
2022,01,07,04,19,989.27
2022,01,07,04,20,989.27
2022,01,07,04,21,989.20
2022,01,07,04,22,989.30
2022,01,07,04,23,989.23
2022,01,07,04,24,989.27
2022,01,07,04,25,989.23
2022,01,07,04,26,989.23
2022,01,07,04,27,989.23
2022,01,07,04,28,989.30
2022,01,07,04,29,989.37
2022,01,07,04,30,989.33
2022,01,07,04,31,989.33
2022,01,07,04,32,989.27
2022,01,07,04,33,989.27
2022,01,07,04,34,989.23
2022,01,07,04,35,989.27
2022,01,07,04,36,989.20
2022,01,07,04,37,989.27
2022,01,07,04,38,989.20
2022,01,07,04,39,989.23
2022,01,07,04,40,989.20
2022,01,07,04,41,989.20
2022,01,07,04,42,989.20
2022,01,07,04,43,989.20
2022,01,07,04,44,989.16
2022,01,07,04,45,989.06
2022,01,07,04,46,989.20
2022,01,07,04,47,989.13
2022,01,07,04,48,989.13
2022,01,07,04,49,989.20
2022,01,07,04,50,989.16
2022,01,07,04,51,989.23
2022,01,07,04,52,989.20
2022,01,07,04,53,989.23
2022,01,07,04,54,989.23
2022,01,07,04,55,989.30
2022,01,07,04,56,989.23
2022,01,07,04,57,989.30
2022,01,07,04,58,989.30
2022,01,07,04,59,989.30
2022,01,07,05,00,989.23
2022,01,07,05,01,989.30
2022,01,07,05,02,989.27
2022,01,07,05,03,989.30
2022,01,07,05,04,989.30
2022,01,07,05,05,989.30
2022,01,07,05,06,989.27
2022,01,07,05,07,989.30
2022,01,07,05,08,989.33
2022,01,07,05,09,989.40
2022,01,07,05,10,989.37
2022,01,07,05,11,989.33
2022,01,07,05,12,989.40
2022,01,07,05,13,989.37
2022,01,07,05,14,989.40
2022,01,07,05,15,989.37
2022,01,07,05,16,989.37
2022,01,07,05,17,989.37
2022,01,07,05,18,989.40
2022,01,07,05,19,989.44
2022,01,07,05,20,989.37
2022,01,07,05,21,989.40
2022,01,07,05,22,989.47
2022,01,07,05,23,989.47
2022,01,07,05,24,989.44
2022,01,07,05,25,989.47
2022,01,07,05,26,989.44
2022,01,07,05,27,989.47
2022,01,07,05,28,989.44
2022,01,07,05,29,989.47
2022,01,07,05,30,989.44
2022,01,07,05,31,989.47
2022,01,07,05,32,989.47
2022,01,07,05,33,989.50
2022,01,07,05,34,989.50
2022,01,07,05,35,989.47
2022,01,07,05,36,989.47
2022,01,07,05,37,989.44
2022,01,07,05,38,989.47
2022,01,07,05,39,989.50
2022,01,07,05,40,989.47
2022,01,07,05,41,989.54
2022,01,07,05,42,989.50
2022,01,07,05,43,989.60
2022,01,07,05,44,989.54
2022,01,07,05,45,989.60
2022,01,07,05,46,989.60
2022,01,07,05,47,989.64
2022,01,07,05,48,989.64
2022,01,07,05,49,989.64
2022,01,07,05,50,989.71
2022,01,07,05,51,989.67
2022,01,07,05,52,989.64
2022,01,07,05,53,989.67
2022,01,07,05,54,989.64
2022,01,07,05,55,989.64
2022,01,07,05,56,989.67
2022,01,07,05,57,989.67
2022,01,07,05,58,989.74
2022,01,07,05,59,989.74
2022,01,07,06,00,989.81
2022,01,07,06,01,989.77
2022,01,07,06,02,989.71
2022,01,07,06,03,989.81
2022,01,07,06,04,989.84
2022,01,07,06,05,989.81
2022,01,07,06,06,989.81
2022,01,07,06,07,989.77
2022,01,07,06,08,989.81
2022,01,07,06,09,989.81
2022,01,07,06,10,989.81
2022,01,07,06,11,989.84
2022,01,07,06,12,989.77
2022,01,07,06,13,989.74
2022,01,07,06,14,989.81
2022,01,07,06,15,989.84
2022,01,07,06,16,989.81
2022,01,07,06,17,989.84
2022,01,07,06,18,989.84
2022,01,07,06,19,989.84
2022,01,07,06,20,989.81
2022,01,07,06,21,989.84
2022,01,07,06,22,989.88
2022,01,07,06,23,989.84
2022,01,07,06,24,989.84
2022,01,07,06,25,989.94
2022,01,07,06,26,989.84
2022,01,07,06,27,989.84
2022,01,07,06,28,989.84
2022,01,07,06,29,989.88
2022,01,07,06,30,989.88
2022,01,07,06,31,989.91
2022,01,07,06,32,989.88
2022,01,07,06,33,989.88
2022,01,07,06,34,989.91
2022,01,07,06,35,989.98
2022,01,07,06,36,989.98
2022,01,07,06,37,990.01
2022,01,07,06,38,990.01
2022,01,07,06,39,990.04
2022,01,07,06,40,990.04
2022,01,07,06,41,990.08
2022,01,07,06,42,990.04
2022,01,07,06,43,989.98
2022,01,07,06,44,990.04
2022,01,07,06,45,989.98
2022,01,07,06,46,990.01
2022,01,07,06,47,989.95
2022,01,07,06,48,990.08
2022,01,07,06,49,990.04
2022,01,07,06,50,990.01
2022,01,07,06,51,990.04
2022,01,07,06,52,990.04
2022,01,07,06,53,990.01
2022,01,07,06,54,990.01
2022,01,07,06,55,989.98
2022,01,07,06,56,990.01
2022,01,07,06,57,990.01
2022,01,07,06,58,990.04
2022,01,07,06,59,990.08
2022,01,07,07,00,990.01
2022,01,07,07,01,990.04
2022,01,07,07,02,990.11
2022,01,07,07,03,990.15
2022,01,07,07,04,990.15
2022,01,07,07,05,990.21
2022,01,07,07,06,990.21
2022,01,07,07,07,990.25
2022,01,07,07,08,990.25
2022,01,07,07,09,990.25
2022,01,07,07,10,990.28
2022,01,07,07,11,990.25
2022,01,07,07,12,990.35
2022,01,07,07,13,990.35
2022,01,07,07,14,990.38
2022,01,07,07,15,990.35
2022,01,07,07,16,990.35
2022,01,07,07,17,990.42
2022,01,07,07,18,990.42
2022,01,07,07,19,990.42
2022,01,07,07,20,990.38
2022,01,07,07,21,990.42
2022,01,07,07,22,990.38
2022,01,07,07,23,990.42
2022,01,07,07,24,990.49
2022,01,07,07,25,990.45
2022,01,07,07,26,990.49
2022,01,07,07,27,990.49
2022,01,07,07,28,990.52
2022,01,07,07,29,990.52
2022,01,07,07,30,990.59
2022,01,07,07,31,990.59
2022,01,07,07,32,990.55
2022,01,07,07,33,990.59
2022,01,07,07,34,990.59
2022,01,07,07,35,990.69
2022,01,07,07,36,990.69
2022,01,07,07,37,990.69
2022,01,07,07,38,990.62
2022,01,07,07,39,990.62
2022,01,07,07,40,990.69
2022,01,07,07,41,990.69
2022,01,07,07,42,990.65
2022,01,07,07,43,990.69
2022,01,07,07,44,990.69
2022,01,07,07,45,990.76
2022,01,07,07,46,990.72
2022,01,07,07,47,990.76
2022,01,07,07,48,990.79
2022,01,07,07,49,990.79
2022,01,07,07,50,990.86
2022,01,07,07,51,990.79
2022,01,07,07,52,990.82
2022,01,07,07,53,990.82
2022,01,07,07,54,990.82
2022,01,07,07,55,990.86
2022,01,07,07,56,990.86
2022,01,07,07,57,990.89
2022,01,07,07,58,990.93
2022,01,07,07,59,990.96
2022,01,07,08,00,990.99
2022,01,07,08,01,990.99
2022,01,07,08,02,990.96
2022,01,07,08,03,990.93
2022,01,07,08,04,990.96
2022,01,07,08,05,990.96
2022,01,07,08,06,990.99
2022,01,07,08,07,991.03
2022,01,07,08,08,991.03
2022,01,07,08,09,991.03
2022,01,07,08,10,991.09
2022,01,07,08,11,991.09
2022,01,07,08,12,991.09
2022,01,07,08,13,991.13
2022,01,07,08,14,991.16
2022,01,07,08,15,991.20
2022,01,07,08,16,991.23
2022,01,07,08,17,991.33
2022,01,07,08,18,991.33
2022,01,07,08,19,991.26
2022,01,07,08,20,991.33
2022,01,07,08,21,991.40
2022,01,07,08,22,991.43
2022,01,07,08,23,991.50
2022,01,07,08,24,991.57
2022,01,07,08,25,991.50
2022,01,07,08,26,991.53
2022,01,07,08,27,991.60
2022,01,07,08,28,991.64
2022,01,07,08,29,991.60
2022,01,07,08,30,991.60
2022,01,07,08,31,991.64
2022,01,07,08,32,991.70
2022,01,07,08,33,991.74
2022,01,07,08,34,991.81
2022,01,07,08,35,991.77
2022,01,07,08,36,991.81
2022,01,07,08,37,991.84
2022,01,07,08,38,991.87
2022,01,07,08,39,991.91
2022,01,07,08,40,991.91
2022,01,07,08,41,991.94
2022,01,07,08,42,991.98
2022,01,07,08,43,992.01
2022,01,07,08,44,992.01
2022,01,07,08,45,992.11
2022,01,07,08,46,992.08
2022,01,07,08,47,992.08
2022,01,07,08,48,992.08
2022,01,07,08,49,992.14
2022,01,07,08,50,992.18
2022,01,07,08,51,992.21
2022,01,07,08,52,992.28
2022,01,07,08,53,992.28
2022,01,07,08,54,992.35
2022,01,07,08,55,992.38
2022,01,07,08,56,992.45
2022,01,07,08,57,992.45
2022,01,07,08,58,992.46
2022,01,07,08,59,992.62
2022,01,07,09,00,992.52
2022,01,07,09,01,992.62
2022,01,07,09,02,992.62
2022,01,07,09,03,992.69
2022,01,07,09,04,992.72
2022,01,07,09,05,992.82
2022,01,07,09,06,992.86
2022,01,07,09,07,992.82
2022,01,07,09,08,992.96
2022,01,07,09,09,992.96
2022,01,07,09,10,993.03
2022,01,07,09,11,992.96
2022,01,07,09,12,993.03
2022,01,07,09,13,993.09
2022,01,07,09,14,993.16
2022,01,07,09,15,993.19
2022,01,07,09,16,993.23
2022,01,07,09,17,993.33
2022,01,07,09,18,993.36
2022,01,07,09,19,993.33
2022,01,07,09,20,993.40
2022,01,07,09,21,993.50
2022,01,07,09,22,993.57
2022,01,07,09,23,993.67
2022,01,07,09,24,993.67
2022,01,07,09,25,993.67
2022,01,07,09,26,993.67
2022,01,07,09,27,993.70
2022,01,07,09,28,993.70
2022,01,07,09,29,993.74
2022,01,07,09,30,993.77
2022,01,07,09,31,993.80
2022,01,07,09,32,993.80
2022,01,07,09,33,993.74
2022,01,07,09,34,993.80
2022,01,07,09,35,993.77
2022,01,07,09,36,993.77
2022,01,07,09,37,993.84
2022,01,07,09,38,993.87
2022,01,07,09,39,993.91
2022,01,07,09,40,993.91
2022,01,07,09,41,993.97
2022,01,07,09,42,993.97
2022,01,07,09,43,994.01
2022,01,07,09,44,994.01
2022,01,07,09,45,994.01
2022,01,07,09,46,994.04
2022,01,07,09,47,994.07
2022,01,07,09,48,994.04
2022,01,07,09,49,994.11
2022,01,07,09,50,994.18
2022,01,07,09,51,994.18
2022,01,07,09,52,994.21
2022,01,07,09,53,994.28
2022,01,07,09,54,994.28
2022,01,07,09,55,994.24
2022,01,07,09,56,994.28
2022,01,07,09,57,994.38
2022,01,07,09,58,994.38
2022,01,07,09,59,994.52
2022,01,07,10,00,994.48
2022,01,07,10,01,994.52
2022,01,07,10,02,994.55
2022,01,07,10,03,994.55
2022,01,07,10,04,994.55
2022,01,07,10,05,994.55
2022,01,07,10,06,994.65
2022,01,07,10,07,994.65
2022,01,07,10,08,994.72
2022,01,07,10,09,994.72
2022,01,07,10,10,994.72
2022,01,07,10,11,994.75
2022,01,07,10,12,994.79
2022,01,07,10,13,994.85
2022,01,07,10,14,994.82
2022,01,07,10,15,994.89
2022,01,07,10,16,994.96
2022,01,07,10,17,994.96
2022,01,07,10,18,994.99
2022,01,07,10,19,994.99
2022,01,07,10,20,995.09
2022,01,07,10,21,995.06
2022,01,07,10,22,995.02
2022,01,07,10,23,995.06
2022,01,07,10,24,995.09
2022,01,07,10,25,995.06
2022,01,07,10,26,995.12
2022,01,07,10,27,995.16
2022,01,07,10,28,995.16
2022,01,07,10,29,995.12
2022,01,07,10,30,995.16
2022,01,07,10,31,995.23
2022,01,07,10,32,995.26
2022,01,07,10,33,995.33
2022,01,07,10,34,995.40
2022,01,07,10,35,995.46
2022,01,07,10,36,995.40
2022,01,07,10,37,995.46
2022,01,07,10,38,995.56
2022,01,07,10,39,995.53
2022,01,07,10,40,995.63
2022,01,07,10,41,995.60
2022,01,07,10,42,995.63
2022,01,07,10,43,995.67
2022,01,07,10,44,995.73
2022,01,07,10,45,995.80
2022,01,07,10,46,995.87
2022,01,07,10,47,995.80
2022,01,07,10,48,996.01
2022,01,07,10,49,996.02
2022,01,07,10,50,996.14
2022,01,07,10,51,996.24
2022,01,07,10,52,996.15
2022,01,07,10,53,996.28
2022,01,07,10,54,996.38
2022,01,07,10,55,996.41
2022,01,07,10,56,996.48
2022,01,07,10,57,996.51
2022,01,07,10,58,996.55
2022,01,07,10,59,996.55
2022,01,07,11,00,996.58
2022,01,07,11,01,996.65
2022,01,07,11,02,996.65
2022,01,07,11,03,996.58
2022,01,07,11,04,996.68
2022,01,07,11,05,996.65
2022,01,07,11,06,996.78
2022,01,07,11,07,996.75
2022,01,07,11,08,996.75
2022,01,07,11,09,996.68
2022,01,07,11,10,996.78
2022,01,07,11,11,996.72
2022,01,07,11,12,996.72
2022,01,07,11,13,996.82
2022,01,07,11,14,996.85
2022,01,07,11,15,996.82
2022,01,07,11,16,996.82
2022,01,07,11,17,996.72
2022,01,07,11,18,996.89
2022,01,07,11,19,996.85
2022,01,07,11,20,996.92
2022,01,07,11,21,996.89
2022,01,07,11,22,996.83
2022,01,07,11,23,997.02
2022,01,07,11,24,996.95
2022,01,07,11,25,997.05
2022,01,07,11,26,996.95
2022,01,07,11,27,997.02
2022,01,07,11,28,997.16
2022,01,07,11,29,997.05
2022,01,07,11,30,997.09
2022,01,07,11,31,997.16
2022,01,07,11,32,997.16
2022,01,07,11,33,997.29
2022,01,07,11,34,997.33
2022,01,07,11,35,997.22
2022,01,07,11,36,997.43
2022,01,07,11,37,997.39
2022,01,07,11,38,997.43
2022,01,07,11,39,997.63
2022,01,07,11,40,997.53
2022,01,07,11,41,997.56
2022,01,07,11,42,997.60
2022,01,07,11,43,997.60
2022,01,07,11,44,997.63
2022,01,07,11,45,997.66
2022,01,07,11,46,997.70
2022,01,07,11,47,997.71
2022,01,07,11,48,997.83
2022,01,07,11,49,997.70
2022,01,07,11,50,997.87
2022,01,07,11,51,997.90
2022,01,07,11,52,997.94
2022,01,07,11,53,998.00
2022,01,07,11,54,998.07
2022,01,07,11,55,998.07
2022,01,07,11,56,998.04
2022,01,07,11,57,998.10
2022,01,07,11,58,998.17
2022,01,07,11,59,998.17
2022,01,07,12,00,998.10
2022,01,07,12,01,998.17
2022,01,07,12,02,998.21
2022,01,07,12,03,998.21
2022,01,07,12,04,998.27
2022,01,07,12,05,998.21
2022,01,07,12,06,998.27
2022,01,07,12,07,998.17
2022,01,07,12,08,998.31
2022,01,07,12,09,998.34
2022,01,07,12,10,998.31
2022,01,07,12,11,998.27
2022,01,07,12,12,998.38
2022,01,07,12,13,998.44
2022,01,07,12,14,998.31
2022,01,07,12,15,998.41
2022,01,07,12,16,998.54
2022,01,07,12,17,998.54
2022,01,07,12,18,998.54
2022,01,07,12,19,998.65
2022,01,07,12,20,998.59
2022,01,07,12,21,998.75
2022,01,07,12,22,998.85
2022,01,07,12,23,998.85
2022,01,07,12,24,998.95
2022,01,07,12,25,998.92
2022,01,07,12,26,998.99
2022,01,07,12,27,998.95
2022,01,07,12,28,998.88
2022,01,07,12,29,999.09
2022,01,07,12,30,998.95
2022,01,07,12,31,999.02
2022,01,07,12,32,999.12
2022,01,07,12,33,999.15
2022,01,07,12,34,999.22
2022,01,07,12,35,999.22
2022,01,07,12,36,999.29
2022,01,07,12,37,999.22
2022,01,07,12,38,999.32
2022,01,07,12,39,999.29
2022,01,07,12,40,999.26
2022,01,07,12,41,999.32
2022,01,07,12,42,999.36
2022,01,07,12,43,999.36
2022,01,07,12,44,999.43
2022,01,07,12,45,999.39
2022,01,07,12,46,999.39
2022,01,07,12,47,999.43
2022,01,07,12,48,999.46
2022,01,07,12,49,999.40
2022,01,07,12,50,999.59
2022,01,07,12,51,999.43
2022,01,07,12,52,999.53
2022,01,07,12,53,999.70
2022,01,07,12,54,999.66
2022,01,07,12,55,999.70
2022,01,07,12,56,999.76
2022,01,07,12,57,999.87
2022,01,07,12,58,999.97
2022,01,07,12,59,1000.07
2022,01,07,13,00,999.80
2022,01,07,13,01,999.90
2022,01,07,13,02,999.90
2022,01,07,13,03,999.93
2022,01,07,13,04,999.90
2022,01,07,13,05,1000.00
2022,01,07,13,06,1000.20
2022,01,07,13,07,999.91
2022,01,07,13,08,1000.10
2022,01,07,13,09,999.98
2022,01,07,13,10,1000.14
2022,01,07,13,11,1000.17
2022,01,07,13,12,1000.20
2022,01,07,13,13,1000.24
2022,01,07,13,14,1000.24
2022,01,07,13,15,1000.27
2022,01,07,13,16,1000.31
2022,01,07,13,17,1000.34
2022,01,07,13,18,1000.48
2022,01,07,13,19,1000.44
2022,01,07,13,20,1000.34
2022,01,07,13,21,1000.41
2022,01,07,13,22,1000.45
2022,01,07,13,23,1000.61
2022,01,07,13,24,1000.71
2022,01,07,13,25,1000.58
2022,01,07,13,26,1000.54
2022,01,07,13,27,1000.71
2022,01,07,13,28,1000.81
2022,01,07,13,29,1000.68
2022,01,07,13,30,1000.85
2022,01,07,13,31,1000.81
2022,01,07,13,32,1000.92
2022,01,07,13,33,1000.88
2022,01,07,13,34,1000.78
2022,01,07,13,35,1001.15
2022,01,07,13,36,1001.08
2022,01,07,13,37,1001.05
2022,01,07,13,38,1000.98
2022,01,07,13,39,1001.15
2022,01,07,13,40,1001.19
2022,01,07,13,41,1001.12
2022,01,07,13,42,1001.05
2022,01,07,13,43,1001.19
2022,01,07,13,44,1001.29
2022,01,07,13,45,1001.22
2022,01,07,13,46,1001.25
2022,01,07,13,47,1001.32
2022,01,07,13,48,1001.49
2022,01,07,13,49,1001.49
2022,01,07,13,50,1001.36
2022,01,07,13,51,1001.46
2022,01,07,13,52,1001.52
2022,01,07,13,53,1001.49
2022,01,07,13,54,1001.46
2022,01,07,13,55,1001.49
2022,01,07,13,56,1001.59
2022,01,07,13,57,1001.49
2022,01,07,13,58,1001.63
2022,01,07,13,59,1001.66
2022,01,07,14,00,1001.69
2022,01,07,14,01,1001.59
2022,01,07,14,02,1001.63
2022,01,07,14,03,1001.73
2022,01,07,14,04,1001.83
2022,01,07,14,05,1001.83
2022,01,07,14,06,1001.73
2022,01,07,14,07,1001.80
2022,01,07,14,08,1001.86
2022,01,07,14,09,1001.93
2022,01,07,14,10,1001.93
2022,01,07,14,11,1001.90
2022,01,07,14,12,1002.00
2022,01,07,14,13,1001.86
2022,01,07,14,14,1001.93
2022,01,07,14,15,1002.07
2022,01,07,14,16,1002.00
2022,01,07,14,17,1002.13
2022,01,07,14,18,1002.27
2022,01,07,14,19,1002.13
2022,01,07,14,20,1002.07
2022,01,07,14,21,1002.13
2022,01,07,14,22,1002.20
2022,01,07,14,23,1002.30
2022,01,07,14,24,1002.27
2022,01,07,14,25,1002.30
2022,01,07,14,26,1002.27
2022,01,07,14,27,1002.34
2022,01,07,14,28,1002.44
2022,01,07,14,29,1002.41
2022,01,07,14,30,1002.24
2022,01,07,14,31,1002.27
2022,01,07,14,32,1002.37
2022,01,07,14,33,1002.41
2022,01,07,14,34,1002.37
2022,01,07,14,35,1002.47
2022,01,07,14,36,1002.47
2022,01,07,14,37,1002.44
2022,01,07,14,38,1002.57
2022,01,07,14,39,1002.68
2022,01,07,14,40,1002.54
2022,01,07,14,41,1002.64
2022,01,07,14,42,1002.71
2022,01,07,14,43,1002.71
2022,01,07,14,44,1002.74
2022,01,07,14,45,1002.68
2022,01,07,14,46,1002.78
2022,01,07,14,47,1002.74
2022,01,07,14,48,1002.81
2022,01,07,14,49,1002.91
2022,01,07,14,50,1002.91
2022,01,07,14,51,1002.95
2022,01,07,14,52,1002.95
2022,01,07,14,53,1002.91
2022,01,07,14,54,1002.98
2022,01,07,14,55,1003.08
2022,01,07,14,56,1003.01
2022,01,07,14,57,1002.98
2022,01,07,14,58,1003.05
2022,01,07,14,59,1003.05
2022,01,07,15,00,1003.12
2022,01,07,15,01,1003.08
2022,01,07,15,02,1003.15
2022,01,07,15,03,1003.15
2022,01,07,15,04,1003.18
2022,01,07,15,05,1003.18
2022,01,07,15,06,1003.18
2022,01,07,15,07,1003.22
2022,01,07,15,08,1003.25
2022,01,07,15,09,1003.15
2022,01,07,15,10,1003.22
2022,01,07,15,11,1003.29
2022,01,07,15,12,1003.39
2022,01,07,15,13,1003.35
2022,01,07,15,14,1003.39
2022,01,07,15,15,1003.25
2022,01,07,15,16,1003.39
2022,01,07,15,17,1003.52
2022,01,07,15,18,1003.49
2022,01,07,15,19,1003.49
2022,01,07,15,20,1003.66
2022,01,07,15,21,1003.62
2022,01,07,15,22,1003.62
2022,01,07,15,23,1003.62
2022,01,07,15,24,1003.62
2022,01,07,15,25,1003.69
2022,01,07,15,26,1003.69
2022,01,07,15,27,1003.69
2022,01,07,15,28,1003.83
2022,01,07,15,29,1003.69
2022,01,07,15,30,1003.79
2022,01,07,15,31,1003.79
2022,01,07,15,32,1003.83
2022,01,07,15,33,1003.79
2022,01,07,15,34,1003.83
2022,01,07,15,35,1003.86
2022,01,07,15,36,1003.90
2022,01,07,15,37,1003.93
2022,01,07,15,38,1003.96
2022,01,07,15,39,1004.00
2022,01,07,15,40,1004.00
2022,01,07,15,41,1003.93
2022,01,07,15,42,1004.10
2022,01,07,15,43,1004.10
2022,01,07,15,44,1004.03
2022,01,07,15,45,1004.06
2022,01,07,15,46,1004.06
2022,01,07,15,47,1004.13
2022,01,07,15,48,1004.17
2022,01,07,15,49,1004.17
2022,01,07,15,50,1004.10
2022,01,07,15,51,1004.10
2022,01,07,15,52,1004.13
2022,01,07,15,53,1004.13
2022,01,07,15,54,1004.17
2022,01,07,15,55,1004.17
2022,01,07,15,56,1004.17
2022,01,07,15,57,1004.27
2022,01,07,15,58,1004.27
2022,01,07,15,59,1004.20
2022,01,07,16,00,1004.23
2022,01,07,16,01,1004.30
2022,01,07,16,02,1004.20
2022,01,07,16,03,1004.17
2022,01,07,16,04,1004.30
2022,01,07,16,05,1004.27
2022,01,07,16,06,1004.34
2022,01,07,16,07,1004.30
2022,01,07,16,08,1004.40
2022,01,07,16,09,1004.47
2022,01,07,16,10,1004.47
2022,01,07,16,11,1004.47
2022,01,07,16,12,1004.47
2022,01,07,16,13,1004.50
2022,01,07,16,14,1004.61
2022,01,07,16,15,1004.61
2022,01,07,16,16,1004.54
2022,01,07,16,17,1004.64
2022,01,07,16,18,1004.74
2022,01,07,16,19,1004.71
2022,01,07,16,20,1004.74
2022,01,07,16,21,1004.88
2022,01,07,16,22,1004.84
2022,01,07,16,23,1004.91
2022,01,07,16,24,1004.95
2022,01,07,16,25,1005.01
2022,01,07,16,26,1004.98
2022,01,07,16,27,1004.95